CAPE
3 3 1 2 2 1 1 0 2 2 1 1 0 0 0 0 0 0 0 0 0 0 0 0 0 0 0 0 0 0 0 0 0 0 0 0 0 0 0 0 0 0 0 0 0
5 0 1 2 2 1 1 0 2 1 1 0 0 0 0 0 0 0 0 0 0 0 0 0 0 0 0 0 0 0 0 0 0 0 0 0 0 0 0 0 0 0 0 0 0
5 4 5 0 0 1 0 2 1 2 1 0 0 0 0 0 0 0 0 0 0 0 0 0 0 0 0 0 0 0 0 0 0 0 0 0 0 0 0 0 0 0 0 0 0
5 4 3 3 3 3 1 1 1 1 1 0 0 0 0 0 0 0 0 0 0 0 0 0 0 0 0 0 0 0 0 0 0 0 0 0 0 0 0 0 0 0 0 0 0
4 3 3 2 1 0 1 2 1 2 0 0 0 0 0 0 0 0 0 0 0 0 0 0 0 0 0 0 0 0 0 0 0 0 0 0 0 0 0 0 1 3 0 0 0
2 3 3 1 1 1 1 1 0 0 0 0 0 0 0 0 0 0 0 0 0 0 0 0 0 0 0 0 0 0 0 0 0 0 0 0 0 0 0 0 0 0 1 0 0
1 1 0 1 0 1 0 0 0 0 0 0 0 0 0 0 0 0 0 0 0 0 0 0 0 0 0 0 0 0 0 0 0 0 0 0 0 0 0 0 0 0 0 0 0
1 1 0 0 1 0 0 0 0 0 0 0 0 0 0 0 0 0 0 0 0 0 0 0 0 0 0 0 0 0 0 0 0 0 0 0 0 0 0 0 0 0 0 0 0
0 2 1 1 0 0 0 0 0 0 0 0 0 0 0 0 0 0 0 0 0 0 0 0 0 0 0 0 0 0 0 0 0 0 0 0 0 0 0 0 0 0 0 0 0
2 1 1 1 0 0 0 0 0 0 0 0 0 0 0 0 0 0 0 0 0 0 0 0 0 0 0 0 0 0 0 0 0 0 0 0 0 0 0 0 0 0 0 0 0
0 2 0 0 0 0 0 0 0 0 0 0 0 0 0 0 0 0 0 0 0 0 0 0 0 0 0 0 0 0 0 0 0 0 0 0 0 0 0 0 0 0 0 0 0
0 0 0 0 0 0 0 0 0 0 0 0 0 0 0 0 0 0 0 0 0 0 0 0 0 0 0 0 0 0 0 0 0 0 0 0 0 0 0 0 0 0 0 0 0
0 0 0 0 0 0 0 0 0 0 0 0 0 0 0 0 0 0 0 0 0 0 0 0 0 0 0 0 0 0 0 0 0 0 0 0 0 0 0 0 0 0 0 0 0
0 0 0 0 0 0 0 0 0 0 0 0 0 0 0 0 0 0 0 0 0 0 0 0 0 0 0 0 0 0 0 0 0 0 0 0 0 0 0 0 0 0 0 0 0
0 0 0 0 0 0 0 0 0 0 0 0 0 0 0 0 0 0 0 0 0 0 0 0 0 0 0 0 0 0 0 0 0 0 0 0 0 0 0 0 0 0 0 0 0
0 0 0 0 0 0 0 0 0 0 0 0 0 0 0 0 0 0 0 0 0 0 0 0 0 0 0 0 0 0 0 0 0 0 0 0 0 0 0 0 0 0 0 0 0
0 0 0 0 0 0 0 0 0 0 7 0 0 0 0 0 0 0 0 0 0 0 0 0 0 0 0 0 0 0 0 0 0 0 0 0 0 0 0 0 0 0 0 0 0
0 0 0 0 0 0 0 0 0 0 0 0 0 0 0 0 0 0 0 0 0 0 0 0 0 0 0 0 0 0 0 0 0 0 0 0 0 0 0 15 0 0 0 0 0
0 0 0 0 0 0 0 0 0 0 0 0 0 0 0 0 0 0 0 0 0 0 0 0 0 0 0 0 0 0 0 1 1 0 0 0 0 0 9 19 4 0 0 0 0
0 0 0 0 0 0 0 0 0 0 0 0 0 0 0 0 0 0 0 0 0 0 0 0 0 0 0 0 0 0 0 0 1 1 0 0 0 0 2 16 70 0 0 0 0
0 0 0 0 0 0 0 0 0 0 0 0 0 0 0 0 0 0 0 0 0 0 0 0 0 0 0 0 0 0 1 0 1 1 12 0 0 30 44 1 0 5 0 0 0
0 0 0 0 0 0 0 0 0 0 0 0 0 0 0 0 0 0 0 0 0 0 0 0 0 0 0 0 0 0 2 0 1 0 0 0 0 0 23 9 0 0 0 0 0
0 0 0 0 0 0 0 0 0 0 0 0 0 0 0 0 0 0 0 0 0 0 0 0 0 0 0 0 0 1 20 9 0 1 0 1 0 20 0 49 0 0 0 0 0
0 0 8 0 0 0 0 0 0 0 0 0 0 0 0 0 0 0 0 0 0 0 0 3 1 0 0 0 1 5 1 3 29 28 2 0 0 0 0 3 31 11 5 0 0
0 0 0 0 0 0 0 0 0 0 0 0 0 0 0 0 0 0 0 0 0 0 0 0 0 4 5 0 14 9 0 0 3 7 21 0 9 0 11 13 0 0 2 1 0
0 0 0 0 0 0 0 0 0 0 0 0 0 0 0 0 0 0 0 0 0 0 0 0 0 0 0 0 0 0 0 0 7 43 43 24 0 16 46 6 1 34 85 53 47
0 0 0 0 0 0 0 0 0 2 0 0 0 0 0 0 0 0 0 0 0 0 0 0 0 0 0 0 0 0 0 0 0 0 28 13 9 38 23 0 18 34 36 95 56
CIN
-0 -0 -0 -0 -0 -0 -0 -0 -0 -0 -0 -0 -0 -0 -0 -0 -0 -0 -0 -0 -0 -0 -0 -0 -0 -0 -0 -0 -0 -0 -0 -0 -0 -0 -0 -0 -0 -0 -0 -0 -0 -0 -0 -0 -0
-0 -0 -0 -0 -0 -0 -0 -0 -0 -0 -0 -0 -0 -0 -0 -0 -0 -0 -0 -0 -0 -0 -0 -0 -0 -0 -0 -0 -0 -0 -0 -0 -0 -0 -0 -0 -0 -0 -0 -0 -0 -0 -0 -0 -0
-0 -0 -0 -0 -0 -0 -0 -0 -0 -0 -0 -0 -0 -0 -0 -0 -0 -0 -0 -0 -0 -0 -0 -0 -0 -0 -0 -0 -0 -0 -0 -0 -0 -0 -0 -0 -0 -0 -0 -0 -0 -0 -0 -0 -0
-0 -0 -0 -0 -0 -0 -0 -0 -0 -0 -0 -0 -0 -0 -0 -0 -0 -0 -0 -0 -0 -0 -0 -0 -0 -0 -0 -0 -0 -0 -0 -0 -0 -0 -0 -0 -0 -0 -0 -0 -3 -0 -5 -2 -0
-0 -0 -0 -0 -0 -0 -0 -0 -0 -0 -0 -0 -0 -0 -0 -0 -0 -0 -0 -0 -0 -0 -0 -0 -0 -0 -0 -0 -0 -0 -0 -0 -0 -0 -0 -0 -0 -0 -0 -0 -33 -19 -0 -0 -0
-0 -0 -0 -0 -0 -0 -0 -0 -0 -0 -0 -0 -0 -0 -0 -0 -0 -0 -0 -0 -0 -0 -0 -0 -0 -0 -0 -0 -0 -0 -0 -0 -0 -0 -0 -0 -0 -0 -0 -0 -0 -10 -12 -0 -0
-0 -0 -0 -0 -0 -0 -0 -0 -0 -0 -0 -0 -0 -0 -0 -0 -0 -0 -0 -0 -0 -0 -0 -0 -0 -0 -0 -0 -0 -0 -0 -0 -0 -0 -0 -0 -0 -0 -0 -0 -0 -0 -0 -0 -0
-0 -0 -0 -0 -0 -0 -0 -0 -0 -0 -0 -0 -0 -0 -0 -0 -0 -0 -0 -0 -0 -0 -0 -0 -0 -0 -0 -0 -0 -0 -0 -0 -0 -0 -0 -0 -0 -0 -0 -0 -0 -0 -0 -0 -0
-0 -0 -0 -0 -0 -0 -0 -0 -0 -0 -0 -0 -0 -0 -0 -0 -0 -0 -0 -0 -0 -0 -0 -0 -0 -0 -0 -0 -0 -0 -0 -0 -0 -0 -0 -0 -0 -0 -0 -0 -0 -0 -0 -0 -0
-0 -0 -0 -0 -0 -0 -0 -0 -0 -0 -0 -0 -0 -0 -0 -0 -0 -0 -0 -0 -0 -0 -0 -0 -0 -0 -0 -0 -0 -0 -0 -0 -0 -0 -0 -0 -0 -0 -0 -0 -0 -0 -0 -0 -0
-0 -0 -0 -0 -0 -0 -0 -0 -0 -0 -0 -0 -0 -0 -0 -0 -0 -0 -0 -0 -0 -0 -0 -0 -0 -0 -0 -0 -0 -0 -0 -0 -0 -0 -0 -0 -0 -0 -0 -0 -0 -0 -0 -0 -0
-0 -0 -0 -0 -0 -0 -0 -0 -0 -0 -0 -0 -0 -0 -0 -0 -0 -0 -0 -0 -0 -0 -0 -0 -0 -0 -0 -0 -0 -0 -0 -0 -0 -0 -0 -0 -0 -0 -0 -0 -0 -0 -0 -0 -0
-0 -0 -0 -0 -0 -0 -0 -0 -0 -0 -0 -0 -0 -0 -0 -0 -0 -0 -0 -0 -0 -0 -0 -0 -0 -0 -0 -0 -0 -0 -0 -0 -0 -0 -0 -0 -0 -0 -0 -0 -0 -0 -0 -0 -0
-0 -0 -0 -0 -0 -0 -0 -0 -0 -0 -0 -0 -0 -0 -0 -0 -0 -0 -0 -0 -0 -0 -0 -0 -0 -0 -0 -0 -0 -0 -0 -0 -0 -0 -0 -0 -0 -0 -0 -0 -0 -0 -0 -0 -0
-0 -0 -0 -0 -0 -0 -0 -0 -0 -0 -0 -0 -0 -0 -0 -0 -0 -0 -0 -0 -0 -0 -0 -0 -0 -0 -0 -0 -0 -0 -0 -0 -0 -0 -0 -0 -0 -0 -0 -0 -0 -0 -0 -0 -0
-0 -0 -0 -0 -0 -0 -0 -0 -0 -0 -0 -0 -0 -0 -0 -0 -0 -0 -0 -0 -0 -0 -0 -0 -0 -0 -0 -0 -0 -0 -0 -0 -0 -0 -0 -0 -0 -0 -0 -0 -0 -0 -0 -0 -0
-0 -0 -0 -0 -0 -0 -0 -0 -0 -0 -5 -0 -0 -0 -0 -0 -0 -0 -0 -0 -0 -0 -0 -0 -0 -0 -0 -0 -0 -0 -0 -0 -0 -0 -0 -0 -4 -0 -0 -14 -4 -0 -0 -0 -0
-0 -0 -0 -0 -0 -0 -0 -0 -0 -0 -0 -0 -0 -0 -0 -0 -0 -0 -0 -0 -0 -0 -0 -0 -0 -0 -0 -0 -0 -0 -0 -2 -0 -0 -0 -0 -0 -0 -25 -82 -21 -0 -0 -0 -0
-0 -0 -0 -0 -0 -0 -0 -0 -0 -0 -0 -0 -0 -0 -0 -0 -0 -0 -0 -0 -0 -0 -0 -0 -0 -0 -0 -0 -0 -0 -15 -11 -27 -0 -0 -0 -0 -0 -111 -59 -66 -0 -0 -0 -0
-0 -0 -0 -0 -0 -0 -0 -0 -0 -0 -0 -0 -0 -0 -0 -0 -0 -0 -0 -0 -0 -0 -0 -0 -0 -0 -0 -0 -0 -0 -0 -0 -58 -77 -0 -0 -0 -0 -64 -83 -54 -0 -0 -0 -0
-0 -0 -0 -0 -0 -0 -0 -0 -0 -0 -0 -0 -0 -0 -0 -0 -0 -0 -0 -0 -0 -0 -0 -0 -0 -0 -0 -0 -0 -0 -18 -24 -22 -18 -21 -0 -0 -57 -71 -75 -36 -84 -0 -0 -0
-0 -0 -0 -0 -0 -0 -0 -0 -0 -0 -0 -0 -0 -0 -0 -0 -0 -0 -0 -0 -0 -0 -0 -0 -0 -0 -0 -0 -0 -0 -78 -0 -47 -1 -0 -0 -0 -0 -61 -74 -0 -0 -65 -0 -0
-0 -0 -3 -0 -0 -0 -0 -0 -0 -0 -0 -0 -0 -0 -0 -0 -0 -0 -0 -0 -0 -0 -0 -0 -0 -0 -0 -0 -0 -34 -65 -92 -0 -1 -0 -0 -0 -37 -0 -76 -0 -0 -0 -0 -0
-0 -0 -7 -0 -0 -0 -0 -0 -0 -0 -0 -0 -0 -0 -0 -0 -0 -0 -0 -0 -0 -0 -0 -3 -0 -0 -0 -0 -11 -17 -13 -22 -24 -15 -8 -4 -0 -0 -0 -15 -31 -65 -42 -0 -0
-6 -0 -0 -0 -0 -0 -0 -0 -0 -0 -0 -0 -0 -0 -0 -0 -0 -0 -0 -0 -0 -0 -0 -0 -1 -6 -12 -0 -24 -32 -0 -13 -16 -9 -9 -0 -44 -0 -44 -58 -0 -0 -40 -16 -0
-0 -0 -0 -0 -0 -0 -0 -0 -0 -0 -0 -0 -0 -0 -0 -0 -0 -0 -0 -0 -0 -0 -0 -0 -0 -0 -0 -0 -0 -0 -0 -0 -11 -19 -14 -7 -0 -71 -44 -92 -148 -107 -74 -69 -51
-0 -0 -0 -0 -0 -0 -0 -0 -0 -0 -0 -0 -0 -0 -0 -0 -0 -0 -0 -0 -0 -0 -0 -0 -0 -0 -0 -0 -0 -0 -0 -0 -1 -15 -15 -19 -42 -44 -63 -0 -119 -93 -70 -47 -90
Wind_Speed
13 15 16 18 19 21 22 23 23 24 24 25 25 25 26 27 29 24 21 16 13 16 20 22 21 20 15 20 25 27 32 35 33 34 34 34 35 27 19 25 24 26 23 26 15
12 13 14 15 17 19 20 22 23 23 24 24 24 25 25 26 26 23 4 11 13 14 18 15 16 14 16 18 18 23 33 34 31 35 37 37 36 34 22 26 30 26 32 31 32
12 13 13 14 15 16 17 18 20 21 22 23 23 24 24 25 22 17 5 6 10 13 15 21 25 22 20 19 20 22 32 33 35 35 36 39 39 35 32 28 24 26 27 27 26
13 14 14 14 15 15 16 17 18 20 21 22 23 23 24 19 18 13 8 8 9 12 14 18 19 19 23 27 24 27 29 30 33 37 40 39 38 38 34 29 17 19 17 18 25
15 15 15 16 16 16 16 17 18 19 20 21 22 22 19 16 16 10 9 9 10 11 13 15 24 20 24 23 25 30 32 32 34 35 36 38 41 39 42 33 24 12 16 20 20
15 17 18 18 18 18 18 18 19 20 21 22 22 22 16 16 10 8 6 8 9 7 18 21 21 28 25 27 29 29 35 35 34 32 30 33 37 37 45 38 32 23 19 17 20
13 14 15 16 18 19 19 20 21 22 23 23 20 18 18 4 10 8 8 5 5 9 21 21 25 21 27 29 26 32 36 36 35 34 36 33 43 42 38 37 43 37 27 24 23
14 14 14 15 15 16 16 17 18 20 21 20 16 16 8 11 15 2 7 9 11 15 17 21 23 24 25 27 31 33 32 36 33 34 37 29 44 37 37 34 39 41 44 40 28
14 13 14 14 15 16 16 16 16 16 15 12 9 10 12 14 5 8 7 5 11 9 14 18 20 23 25 28 30 26 33 33 35 25 27 26 37 35 29 29 32 33 34 34 31
18 15 14 13 14 15 16 16 14 18 10 11 13 9 10 8 8 6 4 4 12 17 18 8 13 12 22 22 28 28 29 32 34 31 33 34 37 28 21 28 35 34 32 26 22
24 21 18 15 14 14 17 16 18 15 8 6 8 6 16 14 12 8 8 5 7 7 7 8 1 2 5 5 11 26 35 36 38 37 37 38 37 34 26 26 30 33 33 33 28
29 26 23 21 20 16 14 17 24 12 6 3 14 14 16 11 10 4 5 4 4 3 3 2 6 3 9 5 18 25 30 35 39 38 37 39 41 38 34 30 31 35 40 39 35
31 29 27 25 24 18 11 10 19 15 17 14 8 9 4 4 4 3 3 2 3 9 7 4 12 24 13 22 20 19 27 31 25 33 34 36 43 44 40 38 39 41 38 39 37
32 30 29 28 21 21 10 9 26 25 16 12 11 8 4 5 12 1 1 4 8 7 10 10 21 23 28 23 25 19 26 29 30 33 33 32 42 45 42 47 49 47 45 34 33
34 32 30 26 21 20 23 26 24 19 13 13 10 11 10 4 16 8 2 7 11 15 20 16 28 32 29 30 26 18 22 27 29 29 37 35 35 33 40 41 42 45 42 36 23
37 33 32 21 14 9 27 29 20 16 11 10 10 9 10 2 6 13 8 10 15 17 20 23 28 25 20 23 26 32 26 23 24 28 29 26 29 24 36 33 36 41 45 30 13
38 36 28 19 12 25 30 21 17 11 18 18 15 9 5 10 7 7 7 8 11 14 15 17 15 17 23 21 19 20 25 28 29 28 30 29 27 23 31 31 34 33 33 9 9
37 33 18 10 11 21 24 16 12 10 13 27 25 27 27 30 22 18 15 12 12 15 18 18 24 26 28 32 31 19 18 24 31 31 33 31 27 31 24 22 28 27 18 16 11
40 25 16 14 7 13 16 14 14 16 29 33 29 25 25 34 32 31 29 22 23 28 27 25 23 36 36 38 32 27 26 23 30 30 30 28 28 35 20 28 24 26 22 16 13
38 23 14 5 8 14 15 17 17 18 25 30 29 25 31 33 34 34 29 27 34 33 35 32 26 26 30 33 28 28 30 28 25 32 33 25 29 26 32 30 26 23 26 17 11
28 24 15 12 12 15 18 16 19 28 32 30 32 30 29 31 30 30 27 32 33 34 35 38 31 30 31 26 28 31 32 32 29 30 32 35 28 23 23 24 26 22 23 23 24
28 25 12 11 19 16 16 18 28 32 33 32 31 33 33 35 34 34 30 29 33 31 34 32 25 25 27 26 28 30 27 26 29 30 31 31 28 33 24 22 25 30 31 32 30
32 23 13 13 23 24 27 30 29 34 38 38 34 34 28 30 35 32 32 32 33 31 24 28 23 28 28 23 23 25 27 25 28 33 35 39 33 30 39 18 30 27 31 30 33
25 24 22 18 22 28 32 31 35 33 34 35 34 33 35 36 32 31 33 29 33 32 28 24 21 21 28 29 32 34 33 32 24 28 39 33 41 46 38 29 27 30 25 26 31
22 22 24 26 29 36 33 38 40 38 29 34 33 34 34 39 38 35 35 35 35 32 26 25 25 26 27 30 28 25 23 35 37 39 35 42 42 41 36 36 35 26 24 28 28
26 27 28 33 32 37 35 31 34 37 34 34 35 38 37 35 36 40 34 31 27 30 30 25 25 24 26 23 22 23 27 26 24 38 44 42 49 30 34 33 32 31 30 28 29
22 21 20 23 29 31 30 32 37 35 28 28 38 38 34 34 31 31 30 26 23 23 20 18 18 22 25 21 22 19 10 20 15 24 30 32 32 34 36 36 35 34 35 36 33
Wind_Direction
268 269 270 274 277 279 281 283 283 283 282 282 285 288 290 290 285 298 296 308 318 306 307 298 294 290 294 285 277 276 272 272 274 276 278 276 282 296 282 275 280 278 287 282 307
268 264 262 261 266 270 274 276 278 279 279 280 284 289 293 296 299 300 298 316 323 320 304 301 304 304 291 291 287 275 272 273 280 277 276 278 284 292 282 274 272 274 276 275 277
268 262 258 255 253 254 255 257 260 261 262 266 273 279 284 290 307 316 57 13 344 328 309 295 288 292 289 291 284 280 275 279 279 279 281 282 283 289 291 291 270 271 275 276 283
270 264 259 255 255 254 255 254 254 255 255 259 267 274 274 314 313 347 44 33 8 335 316 307 302 300 293 287 284 281 281 281 282 279 279 280 286 284 286 299 291 283 281 285 279
274 267 263 259 257 255 254 254 255 256 255 255 266 281 312 320 311 9 45 30 8 354 335 322 302 301 294 296 291 285 285 284 282 283 282 282 282 282 278 288 310 290 279 283 287
278 273 269 265 262 260 258 258 260 261 262 266 283 295 325 320 16 57 40 9 5 0 323 317 310 304 305 296 293 295 290 289 289 289 293 288 288 284 276 280 286 298 285 276 282
278 268 261 257 258 258 260 263 267 271 273 285 311 324 315 10 10 48 36 34 24 346 314 311 317 314 305 301 301 299 293 291 288 290 289 295 283 277 284 282 276 281 284 286 278
287 276 265 253 245 244 249 254 259 263 269 314 335 335 332 344 199 14 9 347 339 330 322 315 314 313 307 303 298 297 296 292 294 293 289 289 279 282 282 282 277 277 278 280 282
293 280 268 256 249 248 249 245 241 242 223 41 62 91 174 340 85 347 341 348 339 334 333 323 320 311 308 301 299 300 293 294 294 299 294 290 282 282 282 282 282 282 284 278 282
302 287 271 253 247 249 251 236 220 249 83 75 173 134 169 120 109 98 92 86 336 326 326 341 336 326 313 303 298 301 298 296 296 303 303 303 299 289 279 284 284 286 286 289 284
311 300 284 264 251 249 279 38 26 30 77 107 78 78 222 16 8 63 25 66 19 8 359 354 255 223 227 284 297 305 298 299 297 303 302 295 296 295 302 291 288 285 285 289 280
318 311 300 286 275 270 37 25 347 20 224 190 207 199 205 3 359 38 59 13 18 13 14 323 215 230 219 271 321 315 311 305 301 302 300 294 291 294 294 294 294 288 284 283 284
319 315 308 300 291 356 33 37 308 339 357 244 182 181 163 17 2 7 102 34 328 332 324 262 328 312 319 318 320 316 313 313 314 307 301 300 292 290 291 293 292 290 287 283 274
317 313 311 302 342 346 20 18 336 349 6 19 49 24 69 29 353 144 50 337 328 310 319 319 321 318 314 320 315 317 317 312 313 312 308 310 303 294 294 290 289 287 286 285 274
316 309 303 325 341 346 343 337 344 359 23 26 32 34 21 50 354 9 36 333 321 319 316 308 308 307 313 311 314 306 312 309 311 311 309 307 305 299 300 296 294 290 287 284 272
314 307 304 342 355 17 274 321 349 6 23 28 24 11 16 21 339 346 346 323 323 319 312 309 307 308 310 310 309 309 311 306 303 306 299 305 306 291 305 305 304 299 290 284 258
310 301 326 336 356 317 313 340 350 8 359 3 8 15 12 349 325 309 298 299 309 310 301 301 290 298 307 293 293 299 307 299 297 294 288 306 303 292 310 311 313 309 311 242 227
307 294 347 347 350 329 333 352 355 2 348 336 330 323 325 323 330 326 315 290 290 293 301 302 308 315 311 311 319 306 287 296 295 297 298 303 294 303 312 314 311 308 301 287 268
311 359 9 16 46 1 357 348 349 345 323 324 327 327 324 312 320 321 324 323 320 314 313 312 300 307 306 305 313 320 311 305 302 303 300 297 303 306 301 307 304 292 287 294 280
335 355 4 58 47 13 357 339 335 335 328 328 327 328 323 320 315 315 320 320 314 314 313 316 304 319 314 312 309 307 311 307 301 300 296 297 301 303 312 307 317 301 292 275 297
347 342 9 31 13 356 339 339 339 328 329 329 323 321 321 321 318 314 315 314 313 314 311 310 310 312 315 313 315 315 309 305 308 304 294 302 304 311 320 310 304 302 291 297 297
342 334 1 7 340 343 342 340 329 325 327 329 327 321 320 319 318 317 317 317 317 320 316 311 302 299 307 309 314 314 314 316 307 308 303 299 290 293 322 315 311 292 292 287 290
329 337 346 347 327 328 327 326 330 325 318 320 324 322 323 319 317 315 316 316 315 319 324 321 322 318 318 320 321 318 314 311 308 302 293 296 298 304 296 300 300 296 297 293 284
335 326 335 331 330 329 325 325 322 327 325 321 322 323 320 318 319 320 319 321 318 319 326 323 312 306 307 311 316 312 311 313 304 298 291 298 293 283 289 300 299 296 296 304 286
340 329 333 321 316 318 322 319 318 320 327 322 323 322 320 314 315 314 316 316 315 316 325 333 322 321 316 316 316 313 308 308 301 299 290 288 287 286 294 299 303 305 297 291 289
340 332 326 314 317 315 316 320 321 321 326 319 320 319 318 316 315 313 318 320 322 323 322 325 323 325 319 321 318 313 317 317 316 304 288 289 279 297 300 302 303 309 313 312 304
3 358 353 339 327 321 319 320 318 326 331 331 319 318 322 319 321 317 316 316 315 321 328 331 332 336 333 346 344 340 350 257 260 259 285 294 298 300 301 302 301 307 306 302 304